This demonstration page uses our WeatherBlox Daily Observations layout. Learn more.

Left ArrowRight Arrow

Hourly Observations for December 2, 2017

Temp ( °F °C ) Dew Point ( °F °C ) Humidity (%) Winds ( mph kmh ) Pressure ( in mb ) Visibility ( mi km ) Precip ( " mm )
12:53 am 00:53 Clear 47 8.3 35 1.7 63 63 NE 3 6 30.01 1016 10 16 0.00 0.00
1:53 am 01:53 Clear 47 8.3 35 1.7 63 63 E 3 6 30.01 1016 10 16 0.00 0.00
2:53 am 02:53 Clear 47 8.3 36 2.2 66 66 N 8 13 30.01 1016 10 16 0.00 0.00
3:53 am 03:53 Clear 47 8.3 37 2.8 69 69 N 6 9 30.02 1017 10 16 0.00 0.00
4:53 am 04:53 Clear 46 7.8 37 2.8 71 71 N 7 11 30.01 1016 10 16 0.00 0.00
5:53 am 05:53 Clear 45 7.2 37 2.8 74 74 NNW 3 6 30.02 1017 10 16 0.00 0.00
6:53 am 06:53 Clear 44 6.7 36 2.2 73 73 N 8 13 30.05 1018 10 16 0.00 0.00
7:53 am 07:53 Sunny 43 6.1 36 2.2 76 76 NNW 7 11 30.08 1019 10 16 0.00 0.00
8:53 am 08:53 Sunny 47 8.3 38 3.3 71 71 Calm 30.09 1019 10 16 0.00 0.00
9:53 am 09:53 Sunny 52 11.1 42 5.6 69 69 NNW 5 7 30.09 1019 10 16 0.00 0.00
10:53 am 10:53 Sunny 58 14.4 47 8.3 67 67 N 6 9 30.09 1019 10 16 0.00 0.00
11:53 am 11:53 Sunny 63 17.2 47 8.3 56 56 VRB 3 6 30.08 1019 10 16 0.00 0.00
12:53 pm 12:53 Sunny 70 21.1 42 5.6 37 37 VRB 3 6 30.04 1017 10 16 0.00 0.00
1:53 pm 13:53 Sunny 72 22.2 42 5.6 34 34 Calm 30.01 1016 10 16 0.00 0.00
2:53 pm 14:53 Sunny 73 22.8 41 5 32 32 Calm 29.99 1016 10 16 0.00 0.00
3:53 pm 15:53 Sunny 73 22.8 43 6.1 34 34 ESE 5 7 29.98 1015 10 16 0.00 0.00
4:53 pm 16:53 Sunny 71 21.7 45 7.2 39 39 SSE 3 6 29.98 1015 10 16 0.00 0.00
5:53 pm 17:53 Clear 67 19.4 45 7.2 45 45 SE 3 6 30.00 1016 10 16 0.00 0.00
6:53 pm 18:53 Clear 64 17.8 44 6.7 48 48 SE 7 11 30.02 1017 10 16 0.00 0.00
7:53 pm 19:53 Clear 60 15.6 44 6.7 56 56 SSW 6 9 30.05 1018 10 16 0.00 0.00
8:53 pm 20:53 Clear 57 13.9 44 6.7 62 62 WSW 3 6 30.06 1018 10 16 0.00 0.00
9:53 pm 21:53 Clear 52 11.1 41 5 66 66 E 5 7 30.06 1018 10 16 0.00 0.00
10:53 pm 22:53 Clear 50 10 41 5 71 71 E 6 9 30.04 1017 10 16 0.00 0.00
11:53 pm 23:53 Clear 49 9.4 40 4.4 71 71 ENE 5 7 30.05 1018 10 16 0.00 0.00

Powered by AerisWeather